Gassville, AR

12:28 PM CST on January 24, 2017 (GMT -0600)
Baxter County Regional

Weather History for KBPK - June, 2013

Change the Weather History Date:

Wednesday, June 19, 2013

  Actual Average (KFLP) Record (KFLP)
Temperature  
Mean Temperature 74 °F -  
Max Temperature 88 °F 83 °F 93 °F (1998)
Min Temperature 61 °F 63 °F 57 °F (2005)
Cooling Degree Days 9    
Growing Degree Days 24 (Base 50)    
Moisture  
Dew Point 61 °F    
Average Humidity 65    
Maximum Humidity 93    
Minimum Humidity 36    
Precipitation  
Precipitation 0.00 in - - ()
Sea Level Pressure  
Sea Level Pressure 30.00 in    
Wind  
Wind Speed 1 mph (SSE)    
Max Wind Speed 6 mph    
Max Gust Speed -    
Visibility 10 miles    
Events      
Averages and records for this station are not official NWS values.
T = Trace of Precipitation, MM = Missing Value Source: NWS Daily Summary

Daily Weather History Graph

Daily Weather History Graph

Search for Another Location

Airport or City:

Trip Planner

Search our weather history database for the weather conditions in past years. The results will help you decide how hot, cold, wet, or windy it might be!

Date:

Astronomy

Jun. 19, 2013 Rise Set
Actual Time 5:52 AM CDT 8:30 PM CDT
Civil Twilight 5:21 AM CDT 9:01 PM CDT
Nautical Twilight 4:43 AM CDT 9:39 PM CDT
Astronomical Twilight 4:01 AM CDT 10:21 PM CDT
Moon 4:28 PM CDT (6/19) 2:31 AM CDT (6/19)
Length of Visible Light 15h 39m
Length of Day
14h 38m
Waxing Gibbous, 80% of the Moon is Illuminated
Jun 19
Waxing Gibbous
Jun 23
Full
Jun 29
Last Quarter
Jul 8
New
Jul 15
First Quarter

Hourly Weather History & Observations

Time (CDT) Temp. Heat Index Dew Point Humidity Pressure Visibility Wind Dir Wind Speed Gust Speed Precip Events Conditions
12:53 AM 64.0 °F - 60.1 °F 87% 29.98 in 10.0 mi Calm Calm - N/A   Clear
1:53 AM 63.0 °F - 59.0 °F 87% 29.98 in 10.0 mi Calm Calm - N/A   Clear
2:53 AM 62.1 °F - 60.1 °F 93% 29.99 in 10.0 mi Calm Calm - N/A   Clear
3:53 AM 62.1 °F - 60.1 °F 93% 29.99 in 10.0 mi Calm Calm - N/A   Clear
4:53 AM 62.1 °F - 57.9 °F 86% 29.99 in 10.0 mi Calm Calm - N/A   Clear
5:53 AM 61.0 °F - 57.9 °F 90% 30.01 in 9.0 mi Calm Calm - N/A   Clear
6:53 AM 64.9 °F - 60.1 °F 84% 30.01 in 10.0 mi Calm Calm - N/A   Clear
7:53 AM 70.0 °F - 60.1 °F 71% 30.03 in 10.0 mi Calm Calm - N/A   Clear
8:53 AM 73.0 °F - 61.0 °F 66% 30.04 in 10.0 mi East 3.5 mph - N/A   Clear
9:53 AM 78.1 °F - 63.0 °F 60% 30.04 in 10.0 mi Calm Calm - N/A   Clear
10:53 AM 81.0 °F 82.2 °F 63.0 °F 54% 30.04 in 10.0 mi Variable 3.5 mph - N/A   Clear
11:53 AM 84.0 °F 85.4 °F 64.0 °F 51% 30.04 in 10.0 mi Calm Calm - N/A   Clear
12:53 PM 84.9 °F 85.4 °F 62.1 °F 46% 30.02 in 10.0 mi East 4.6 mph - N/A   Clear
1:53 PM 87.1 °F 86.7 °F 60.1 °F 40% 30.01 in 10.0 mi Variable 3.5 mph - N/A   Clear
2:53 PM 84.9 °F 85.0 °F 61.0 °F 44% 30.01 in 10.0 mi SW 3.5 mph - N/A   Scattered Clouds
3:53 PM 87.1 °F 85.9 °F 57.0 °F 36% 29.99 in 10.0 mi SSW 4.6 mph - N/A   Clear
4:53 PM 84.9 °F 84.8 °F 60.1 °F 43% 29.99 in 10.0 mi Calm Calm - N/A   Mostly Cloudy
5:53 PM 86.0 °F 86.3 °F 62.1 °F 44% 29.97 in 10.0 mi SSE 5.8 mph - N/A   Partly Cloudy
6:53 PM 84.0 °F 84.9 °F 63.0 °F 49% 29.96 in 10.0 mi South 4.6 mph - N/A   Clear
7:53 PM 80.1 °F 81.7 °F 64.0 °F 58% 29.98 in 10.0 mi South 3.5 mph - N/A   Clear
8:53 PM 75.9 °F - 64.0 °F 67% 29.99 in 10.0 mi Calm Calm - N/A   Clear
9:53 PM 75.9 °F - 64.0 °F 67% 29.99 in 10.0 mi SE 3.5 mph - N/A   Clear
10:53 PM 75.0 °F - 64.0 °F 69% 30.01 in 10.0 mi Calm Calm - N/A   Clear
11:53 PM 73.9 °F - 63.0 °F 68% 30.01 in 10.0 mi Calm Calm - N/A   Clear